Regional Weather Roundup
Issued by NWS

Home | Current Version | Previous Version | Text Only | Print | Product List | Glossary On
Versions: 1 2 3 4 5 6 7 8 9 10 11 12 13 14 15 16 17 18 19 20 21 22 23 24 25 26 27 28 29 30 31 32 33 34 35 36 37 38 39 40 41 42 43 44 45 46 47 48 49 50
000
ASUS45 KABQ 010010
RWRNM
WEATHER ROUNDUP FOR NEW MEXICO
NATIONAL WEATHER SERVICE ALBUQUERQUE NM
600 PM MDT TUE SEP 30 2014

NOTE: "FAIR" MEANS FEW OR NO CLOUDS BELOW 12,000 FEET AGL WITH NO
       SIGNIFICANT WEATHER OR OBSTRUCTIONS TO VISION.

      THIS PRODUCT IS RELEASED AS TWO VERSIONS.  ONE VERSION NEAR
      THE TOP OF THE HOUR CONTAINING PRELIMINARY DATA FROM ALBUQUERQUE
      AND OTHER STATIONS.  A FINAL VERSION WITH ADDITIONAL DATA IS
      ISSUED ABOUT 10 MINUTES AFTER THE HOUR.

NMZ501-503-504-510>518-010100-
NORTHWEST PLATEAU/NORTHCENTRAL MOUNTAINS

CITY           SKY/WX    TMP DP  RH WIND       PRES   REMARKS
FARMINGTON     SUNNY     66  35  31 NW7       29.95F
6HR MIN TEMP:  59; 6HR MAX TEMP:  69;

LOS ALAMOS     CLEAR     63  29  27 SW12      30.01S
SANTA FE       CLEAR     68  28  22 W20G25    29.94S
6HR MIN TEMP:  64; 6HR MAX TEMP:  72;

TAOS           CLEAR     61  30  31 W13       30.01R
ANGEL FIRE     FAIR      54  28  37 W12G23    30.04S

$$
NMZ402-403-502-505>509-010100-
WESTCENTRAL MOUNTAINS/SOUTHWEST MOUNTAINS

CITY           SKY/WX    TMP DP  RH WIND       PRES   REMARKS
GALLUP         SUNNY     66  35  31 SW10      30.00F
6HR MIN TEMP:  61; 6HR MAX TEMP:  68;

GRANTS         SUNNY     66  30  26 W13       30.01R
SILVER CITY    SUNNY     73  28  19 W14G21    29.99S

$$
NMZ407-409-411-412-010100-
SOUTHERN DESERTS

CITY           SKY/WX    TMP DP  RH WIND       PRES   REMARKS
LORDSBURG      FAIR      79  30  17 MISG      29.91S
DEMING         SUNNY     79  34  19 W15       29.89S
6HR MIN TEMP:  75; 6HR MAX TEMP:  82;

LAS CRUCES     SUNNY     80  41  25 W15       29.90S
HOLLOMAN AFB   PTCLDY    81  38  21 W7        29.85R
ALAMOGORDO     PTCLDY    79  43  27 SW9       29.87S
T OR C         SUNNY     80  31  16 S12       29.86F
6HR MIN TEMP:  71; 6HR MAX TEMP:  81;


$$
NMZ519>523-010100-
CENTRAL VALLEYS/CENTRAL HIGHLANDS

CITY           SKY/WX    TMP DP  RH WIND       PRES   REMARKS
ALBUQUERQUE    PTCLDY    75  30  19 W7        29.91S
6HR MIN TEMP:  65; 6HR MAX TEMP:  76;

DOUBLE EAGLE   PTCLDY    72  32  23 NW9       29.95S
MORIARTY ARPT  FAIR      69  30  23 W10       29.96F
6HR MIN TEMP:  67; 6HR MAX TEMP:  71;

CLINES CORNERS CLEAR     64  30  27 W20G30    29.98S
6HR MIN TEMP:  62; 6HR MAX TEMP:  68;

BELEN          FAIR      74  32  21 SE8       29.90F
6HR MIN TEMP:  68; 6HR MAX TEMP:  76;

SOCORRO        FAIR      76  37  25 SE8       29.89S
6HR MIN TEMP:  68; 6HR MAX TEMP:  77;


$$
NMZ524>526-539-540-010100-
SOUTHCENTRAL MOUNTAINS

CITY           SKY/WX    TMP DP  RH WIND       PRES   REMARKS
RUIDOSO        NOT AVBL

$$
NMZ527>531-010100-
NORTHEAST HIGHLANDS/NORTHEAST PLAINS

CITY           SKY/WX    TMP DP  RH WIND       PRES   REMARKS
LAS VEGAS      CLEAR     66  32  28 W16       29.93R
6HR MIN TEMP:  64; 6HR MAX TEMP:  72;

RATON          PTCLDY    68  33  27 W15       29.86R
6HR MIN TEMP:  64; 6HR MAX TEMP:  73;

CLAYTON        CLEAR     71  36  27 S15       29.81R
6HR MIN TEMP:  69; 6HR MAX TEMP:  77;


$$
NMZ532>537-010100-
EASTCENTRAL PLAINS

CITY           SKY/WX    TMP DP  RH WIND       PRES   REMARKS
TUCUMCARI      CLEAR     79  34  19 SW14      29.77F
6HR MIN TEMP:  76; 6HR MAX TEMP:  82;

CANNON AFB     CLEAR     77  42  28 SW14      29.83S
6HR MIN TEMP:  75; 6HR MAX TEMP:  80;

CLOVIS AIRPORT   N/A     75  39  27 SW13      29.85R

$$
NMZ028-029-538-010100-
SOUTHEAST PLAINS

CITY           SKY/WX    TMP DP  RH WIND       PRES   REMARKS
ROSWELL        CLEAR     82  52  35 E3        29.79S
6HR MIN TEMP:  78; 6HR MAX TEMP:  84;

CARLSBAD       CLEAR     84  48  28 SW12      29.78S
6HR MIN TEMP:  81; 6HR MAX TEMP:  88;

HOBBS          PTCLDY    81  55  41 SW9       29.82S


$$


USA.gov is the U.S. government's official web portal to all federal, state and local government web resources and services.